Regional Weather Roundup
Issued by NWS

Home | Current Version | Previous Version | Graphics & Text | Print | Product List | Glossary On
Versions: 1 2 3 4 5 6 7 8 9 10 11 12 13 14 15 16 17 18 19 20 21 22 23 24 25 26 27 28 29 30 31 32 33 34 35 36 37 38 39 40 41 42 43 44 45 46 47 48 49 50
000
ASUS43 KMKX 251211
RWRWI

WISCONSIN REGIONAL WEATHER ROUNDUP
NATIONAL WEATHER SERVICE MILWAUKEE/SULLIVAN WI
700 AM CDT SUN JUN 25 2017

NOTE: "FAIR" INDICATES FEW OR NO CLOUDS BELOW 12,000 FEET WITH NO
SIGNIFICANT WEATHER AND/OR OBSTRUCTIONS TO VISIBILITY.

WIZ001-002-006>008-014>016-023>028-251300-
NORTHWEST WISCONSIN

CITY           SKY/WX    TMP DP  RH WIND       PRES   REMARKS
SUPERIOR ARPT  NOT AVBL
ASHLAND        LGT RAIN  53  52  96 CALM      30.01R FOG
6HR MIN TEMP:  50; 6HR MAX TEMP:  53;

HAYWARD        CLOUDY    52  50  93 CALM      30.03S
6HR MIN TEMP:  50; 6HR MAX TEMP:  53;

SIREN          CLOUDY    51  49  93 W7        30.07R
6HR MIN TEMP:  48; 6HR MAX TEMP:  51;

CUMBERLAND     CLOUDY    50  48  93 W13       30.06R
RICE LAKE      CLOUDY    53  49  87 W12       30.07R
6HR MIN TEMP:  50; 6HR MAX TEMP:  53;

CHETEK         CLOUDY    53  50  91 CALM      30.06R
6HR MIN TEMP:  50; 6HR MAX TEMP:  53;

LADYSMITH      CLOUDY    53  51  92 W6        30.05R
6HR MIN TEMP:  50; 6HR MAX TEMP:  54;

EAU CLAIRE     CLOUDY    53  50  89 W8        30.06R
6HR MIN TEMP:  50; 6HR MAX TEMP:  53;

MENOMONIE      CLOUDY    55  50  84 W9        30.08R
6HR MIN TEMP:  51; 6HR MAX TEMP:  55;

NEW RICHMOND   PTSUNNY   53  46  78 W14       30.09R
6HR MIN TEMP:  49; 6HR MAX TEMP:  53;

OSCEOLA        CLOUDY    54  48  80 W13       30.12R
6HR MIN TEMP:  52; 6HR MAX TEMP:  55;

$$

WIZ003>005-009-010-017-018-251300-
NORTH CENTRAL WISCONSIN

CITY           SKY/WX    TMP DP  RH WIND       PRES   REMARKS
MANITOWISH WTR CLOUDY    51  51 100 W5        29.99S
6HR MIN TEMP:  50; 6HR MAX TEMP:  52;

ARBOR VITAE    CLOUDY    55  52  90 NW7       29.99R
6HR MIN TEMP:  52; 6HR MAX TEMP:  55;

WOODRUFF       CLOUDY    55  52  90 NW7       29.99R
6HR MIN TEMP:  52; 6HR MAX TEMP:  55;

RHINELANDER    CLOUDY    54  52  93 W7        30.00R
6HR MIN TEMP:  51; 6HR MAX TEMP:  53; 6HR PCP:  0.03;

EAGLE RIVER    MOSUNNY   51  51 100 CALM      29.98R
6HR MIN TEMP:  50; 6HR MAX TEMP:  52;

LAND O LAKES   CLOUDY    51  51  99 W3        30.00R
6HR MIN TEMP:  50; 6HR MAX TEMP:  52; 6HR PCP:  0.01;

PHILLIPS       PTSUNNY   48  48 100 CALM      30.01S
6HR MIN TEMP:  45; 6HR MAX TEMP:  51;

TOMAHAWK       NOT AVBL
MEDFORD        CLOUDY    49  48  96 W9        30.03R
6HR MIN TEMP:  47; 6HR MAX TEMP:  49;

MERRILL        SUNNY     50  49  98 NW3       30.01S
6HR MIN TEMP:  47; 6HR MAX TEMP:  51;

$$

WIZ029-030-035-036-043>047-251300-
CENTRAL WISCONSIN

CITY           SKY/WX    TMP DP  RH WIND       PRES   REMARKS
WAUSAU         MOSUNNY   52  48  86 NW8       30.00R
6HR MIN TEMP:  49; 6HR MAX TEMP:  53;

MOSINEE        PTSUNNY   52  50  93 W8        30.03R
MARSHFIELD     CLOUDY    51  48  89 NW10      30.03R
6HR MIN TEMP:  48; 6HR MAX TEMP:  51;

STEVENS POINT  MOSUNNY   51  48  89 NW8       30.03R
6HR MIN TEMP:  48; 6HR MAX TEMP:  51;

WAUPACA        MOSUNNY   55  50  85 W9        30.02R
6HR MIN TEMP:  52; 6HR MAX TEMP:  55;

WAUTOMA        SUNNY     54  49  83 W13       30.04R
6HR MIN TEMP:  49; 6HR MAX TEMP:  54;

WISC RAPIDS    SUNNY     52  48  86 W10       30.05R
6HR MIN TEMP:  48; 6HR MAX TEMP:  52;

CAMP DOUGLAS   SUNNY     53  50  89 W12       30.06R
6HR MIN TEMP:  46; 6HR MAX TEMP:  53;

$$

WIZ011>013-019>022-031-037>040-048>050-251300-
NORTHEAST WISCONSIN

CITY           SKY/WX    TMP DP  RH WIND       PRES   REMARKS
ANTIGO         CLOUDY    51  50  97 NW8       29.99R
6HR MIN TEMP:  49; 6HR MAX TEMP:  51; 6HR PCP:  0.02;

SHAWANO        MOSUNNY   56  51  84 W8        29.97S
6HR MIN TEMP:  54; 6HR MAX TEMP:  57; 6HR PCP:  0.07;

OCONTO         PTSUNNY   55  52  92 NW7       29.95R
6HR MIN TEMP:  50; 6HR MAX TEMP:  55; 6HR PCP:  0.07;

STURGEON BAY     N/A     55  52  89 NW9         N/A
6HR MIN TEMP:  53; 6HR MAX TEMP:  55;

GREEN BAY      CLOUDY    55  52  89 W14       29.97R
6HR MIN TEMP:  53; 6HR MAX TEMP:  55; 6HR PCP:  0.02;

MANITOWOC      CLOUDY    57  50  77 W13       29.98R
6HR MIN TEMP:  53; 6HR MAX TEMP:  57; 6HR PCP: TRACE;

APPLETON       PTSUNNY   52  48  87 W9        29.99R
CLINTONVILLE   SUNNY     54  46  76 NW9       29.99R
OSHKOSH        SUNNY     53  48  83 W6        30.00R
6HR MIN TEMP:  51; 6HR MAX TEMP:  53;

$$

WIZ032>034-041-042-053>061-251300-
SOUTHWEST WISCONSIN

CITY           SKY/WX    TMP DP  RH WIND       PRES   REMARKS
LA CROSSE      PTSUNNY   59  49  69 W8        30.09S
6HR MIN TEMP:  55; 6HR MAX TEMP:  60;

SPARTA         PTSUNNY   49  49  99 SW3       30.09R
6HR MIN TEMP:  40; 6HR MAX TEMP:  49;

VIROQUA        SUNNY     51  49  95 W8        30.10R
6HR MIN TEMP:  48; 6HR MAX TEMP:  51;

BOSCOBEL       SUNNY     54  50  86 S5        30.11R
6HR MIN TEMP:  50; 6HR MAX TEMP:  54;

PRAIRIE DU CHI SUNNY     54  47  76 NW8       30.12S
6HR MIN TEMP:  51; 6HR MAX TEMP:  54;

PLATTEVILLE    SUNNY     53  52  95 W6        30.12S
6HR MIN TEMP:  48; 6HR MAX TEMP:  53;

$$

WIZ056-057-062-063-064-067-068-251300-
SOUTH CENTRAL WISCONSIN

CITY           SKY/WX    TMP DP  RH WIND       PRES   REMARKS
REEDSBURG      SUNNY     53  50  90 W6        30.08R
6HR MIN TEMP:  49; 6HR MAX TEMP:  53;

BARABOO/DELLS  SUNNY     53  48  85 W10       30.07R
6HR MIN TEMP:  47; 6HR MAX TEMP:  53;

LONE ROCK      SUNNY     54  50  86 W6        30.09R
6HR MIN TEMP:  51; 6HR MAX TEMP:  54;

MINERAL POINT  SUNNY     54  50  87 W7        30.11R
MADISON        MOSUNNY   53  49  86 W7        30.06S
6HR MIN TEMP:  51; 6HR MAX TEMP:  53;

MIDDLETON      SUNNY     53  50  90 W9        30.08S
6HR MIN TEMP:  50; 6HR MAX TEMP:  53; 6HR PCP:  0.01;

WATERTOWN      SUNNY     53  51  92 W7        30.06R
6HR MIN TEMP:  50; 6HR MAX TEMP:  53;

MONROE         SUNNY     54  46  76 W10       30.10R
JANESVILLE     SUNNY     55  54  94 W12       30.08R
$$

WIZ051-052-058>065-066-070>072-251300-
SOUTHEAST WISCONSIN

CITY           SKY/WX    TMP DP  RH WIND       PRES   REMARKS
MILWAUKEE      MOSUNNY   57  49  74 W12       30.04R
6HR MIN TEMP:  53; 6HR MAX TEMP:  57;

WAUKESHA       SUNNY     52  48  87 W13G18    30.05R
MILWAUKEE/TIMM SUNNY     54  45  71 W12G18    30.04S
RACINE         SUNNY     55  49  80 W10       30.06S
6HR MIN TEMP:  52; 6HR MAX TEMP:  55;

KENOSHA        SUNNY     55  50  83 W9        30.06R
6HR MIN TEMP:  49; 6HR MAX TEMP:  55;

FOND DU LAC    PTSUNNY   56  47  71 W13       30.02R
6HR MIN TEMP:  50; 6HR MAX TEMP:  56;

SHEBOYGAN      SUNNY     55  50  83 W12       29.99R
6HR MIN TEMP:  51; 6HR MAX TEMP:  55;

WEST BEND      SUNNY     54  48  82 W13G18    30.03R
JUNEAU         SUNNY     51  48  89 W6        30.05S
6HR MIN TEMP:  47; 6HR MAX TEMP:  51;

$$

LSZ147-162-251300-
LAKE SUPERIOR

STATION/POSITION TIME  TEMP    WIND        PRES    WAVE
                       AIR SEA DIR/SP/G            HT/PER
                 (UTC) (F)     (DEG/KT/KT) (MB)    (FT/S)
W MID LAKE BUOY  1150   45 39  300/  6/  6 1015.4R   0
DEVILS ISLAND    1200   52     250/  9/ 10 1016.1R
SAXON HARBOR     1140   54     210/  4/  5 1015.6R
$$

LMZ867-665-643>646-251300-
LAKE MICHIGAN

STATION/POSITION TIME  TEMP    WIND        PRES    WAVE
                       AIR SEA DIR/SP/G            HT/PER
                 (UTC) (F)     (DEG/KT/KT) (MB)    (FT/S)
CHAMBERS ISLAND  1130   55     290/  6/  8 1013.5R
S GREEN BAY BUOY 1200   56     310/ 12/ 17 1014.0
N MID LAKE BUOY  1150   56 56  330/ 10/ 12 1013.9R   1/ 3
NORTHPORT PIER   1140



USA.gov is the U.S. government's official web portal to all federal, state and local government web resources and services.